• In United Kingdom
  • List of Countries
  • For 7 days
  • Water Temperature
  • Satellite Maps
  • Weather Map
  • Weather Widgets
  • user-avatar
    Login

    Hourly Weather Igls

    Today, 18 June, Monday

    Time Temperature Precipitation Wind Pressure Humidity
    00:00 +14°C° 0.4 mm 1 mps 687 mmHg 96%
    01:00 +14°C° 0.4 mm 1 mps 687 mmHg 96%
    02:00 +14°C° 0.5 mm 1 mps 687 mmHg 96%
    03:00 +14°C° 0.5 mm 1 mps 687 mmHg 97%
    04:00 +14°C° 0.5 mm 1 mps 688 mmHg 97%
    05:00 +14°C° 0.3 mm 1 mps 688 mmHg 95%
    06:00 +15°C° 0.3 mm 1 mps 688 mmHg 94%
    07:00 +15°C° 0.3 mm 1 mps 688 mmHg 93%
    08:00 +16°C° 0.1 mm 1 mps 688 mmHg 88%
    09:00 +17°C° 0.1 mm 2 mps 688 mmHg 83%
    10:00 +18°C° 0.1 mm 2 mps 688 mmHg 79%
    11:00 +19°C° 0.2 mm 2 mps 689 mmHg 73%
    12:00 +20°C° 0.2 mm 2 mps 689 mmHg 67%
    13:00 +21°C° 0.2 mm 2 mps 689 mmHg 61%
    14:00 +21°C° 0.3 mm 2 mps 689 mmHg 63%
    15:00 +21°C° 0.3 mm 2 mps 689 mmHg 66%
    16:00 +21°C° 0.3 mm 3 mps 689 mmHg 68%
    17:00 +20°C° 0.3 mm 2 mps 689 mmHg 74%
    18:00 +19°C° 0.3 mm 2 mps 689 mmHg 80%
    19:00 +18°C° 0.3 mm 2 mps 689 mmHg 86%
    20:00 +17°C° 0 mm 2 mps 689 mmHg 89%
    21:00 +16°C° 0 mm 2 mps 689 mmHg 92%
    22:00 +15°C° 0 mm 1 mps 689 mmHg 95%
    23:00 +14°C° 0 mm 1 mps 689 mmHg 95%

    Tomorrow, 19 June, Tuesday

    Time Temperature Precipitation Wind Pressure Humidity
    00:00 +14°C° 0 mm 1 mps 689 mmHg 96%
    01:00 +13°C° 0 mm 1 mps 689 mmHg 96%
    02:00 +13°C° 0 mm 1 mps 689 mmHg 95%
    03:00 +12°C° 0 mm 1 mps 689 mmHg 95%
    04:00 +12°C° 0 mm 1 mps 689 mmHg 95%
    05:00 +14°C° 0 mm 1 mps 689 mmHg 90%
    06:00 +15°C° 0 mm 1 mps 690 mmHg 85%
    07:00 +18°C° 0 mm 1 mps 690 mmHg 80%
    08:00 +19°C° 0 mm 2 mps 690 mmHg 72%
    09:00 +21°C° 0 mm 2 mps 691 mmHg 63%
    10:00 +23°C° 0 mm 2 mps 691 mmHg 55%
    11:00 +24°C° 0 mm 2 mps 691 mmHg 54%
    12:00 +25°C° 0 mm 2 mps 691 mmHg 53%
    13:00 +25°C° 0 mm 2 mps 691 mmHg 52%
    14:00 +25°C° 0 mm 2 mps 690 mmHg 54%
    15:00 +25°C° 0 mm 2 mps 690 mmHg 56%
    16:00 +25°C° 0 mm 3 mps 690 mmHg 58%
    17:00 +24°C° 0.1 mm 2 mps 690 mmHg 65%
    18:00 +23°C° 0.1 mm 2 mps 690 mmHg 73%
    19:00 +21°C° 0.1 mm 2 mps 690 mmHg 80%
    20:00 +19°C° 0.1 mm 2 mps 690 mmHg 86%
    21:00 +18°C° 0.1 mm 1 mps 690 mmHg 91%
    22:00 +16°C° 0.1 mm 1 mps 690 mmHg 96%
    23:00 +15°C° 0 mm 1 mps 690 mmHg 96%

    Day after tomorrow, 20 June, Wednesday

    Time Temperature Precipitation Wind Pressure Humidity
    00:00 +15°C° 0 mm 1 mps 690 mmHg 96%
    01:00 +14°C° 0 mm 1 mps 690 mmHg 96%
    02:00 +14°C° 0 mm 1 mps 689 mmHg 96%
    03:00 +14°C° 0 mm 1 mps 689 mmHg 95%
    04:00 +13°C° 0 mm 1 mps 689 mmHg 94%
    05:00 +15°C° 0 mm 1 mps 689 mmHg 88%
    06:00 +16°C° 0 mm 0 mps 690 mmHg 82%
    07:00 +18°C° 0 mm 0 mps 690 mmHg 76%
    08:00 +20°C° 0 mm 0 mps 690 mmHg 68%
    09:00 +24°C° 0 mm 1 mps 690 mmHg 60%
    10:00 +26°C° 0 mm 1 mps 690 mmHg 52%
    11:00 +27°C° 0 mm 1 mps 690 mmHg 51%
    12:00 +27°C° 0 mm 1 mps 690 mmHg 49%
    13:00 +28°C° 0 mm 2 mps 690 mmHg 48%
    14:00 +27°C° 0.4 mm 2 mps 690 mmHg 53%
    15:00 +27°C° 0.4 mm 1 mps 689 mmHg 57%
    16:00 +26°C° 0.4 mm 1 mps 689 mmHg 62%
    17:00 +25°C° 0.8 mm 1 mps 689 mmHg 69%
    18:00 +25°C° 0.8 mm 1 mps 689 mmHg 75%
    19:00 +24°C° 0.8 mm 1 mps 688 mmHg 82%
    20:00 +22°C° 0.6 mm 1 mps 688 mmHg 85%
    21:00 +21°C° 0.6 mm 1 mps 688 mmHg 89%
    22:00 +19°C° 0.6 mm 1 mps 688 mmHg 92%
    23:00 +19°C° 0.2 mm 1 mps 688 mmHg 93%

    21 June, Thursday

    Time Temperature Precipitation Wind Pressure Humidity
    00:00 +17°C° 0.2 mm 2 mps 688 mmHg 93%
    01:00 +17°C° 0.2 mm 2 mps 688 mmHg 94%
    02:00 +17°C° 0.1 mm 2 mps 687 mmHg 94%
    03:00 +16°C° 0.1 mm 2 mps 687 mmHg 94%
    04:00 +16°C° 0.1 mm 2 mps 687 mmHg 94%
    05:00 +19°C° 0.1 mm 1 mps 687 mmHg 89%
    06:00 +20°C° 0.1 mm 1 mps 687 mmHg 85%
    07:00 +22°C° 0.1 mm 1 mps 687 mmHg 80%
    08:00 +23°C° 0.4 mm 1 mps 687 mmHg 74%
    09:00 +25°C° 0.4 mm 1 mps 687 mmHg 68%
    10:00 +26°C° 0.4 mm 1 mps 687 mmHg 62%
    11:00 +27°C° 1.2 mm 1 mps 687 mmHg 61%
    12:00 +27°C° 1.2 mm 1 mps 686 mmHg 60%
    13:00 +28°C° 1.2 mm 1 mps 686 mmHg 60%
    14:00 +27°C° 1.6 mm 1 mps 686 mmHg 63%
    15:00 +26°C° 1.6 mm 1 mps 686 mmHg 67%
    16:00 +26°C° 1.6 mm 1 mps 685 mmHg 70%
    17:00 +25°C° 1.6 mm 1 mps 685 mmHg 77%
    18:00 +23°C° 1.6 mm 1 mps 685 mmHg 83%
    19:00 +22°C° 1.6 mm 1 mps 685 mmHg 89%
    20:00 +21°C° 0.8 mm 1 mps 685 mmHg 91%
    21:00 +20°C° 0.8 mm 1 mps 685 mmHg 93%
    22:00 +19°C° 0.8 mm 1 mps 685 mmHg 95%
    23:00 +18°C° 0.6 mm 1 mps 685 mmHg 96%

    22 June, Friday

    Time Temperature Precipitation Wind Pressure Humidity
    00:00 +18°C° 0.6 mm 1 mps 685 mmHg 97%
    01:00 +18°C° 0.6 mm 1 mps 685 mmHg 97%
    02:00 +16°C° 0.2 mm 2 mps 685 mmHg 97%
    03:00 +16°C° 0.2 mm 2 mps 685 mmHg 97%
    04:00 +15°C° 0.2 mm 2 mps 685 mmHg 97%
    05:00 +15°C° 0.2 mm 2 mps 685 mmHg 97%
    06:00 +14°C° 0.2 mm 2 mps 685 mmHg 96%
    07:00 +14°C° 0.2 mm 2 mps 685 mmHg 96%
    08:00 +14°C° 0.1 mm 2 mps 686 mmHg 95%
    09:00 +14°C° 0.1 mm 2 mps 686 mmHg 93%
    10:00 +14°C° 0.1 mm 2 mps 686 mmHg 92%
    11:00 +15°C° 0 mm 2 mps 686 mmHg 85%
    12:00 +16°C° 0 mm 2 mps 686 mmHg 78%
    13:00 +17°C° 0 mm 2 mps 686 mmHg 71%
    14:00 +17°C° 0 mm 3 mps 685 mmHg 68%
    15:00 +17°C° 0 mm 3 mps 685 mmHg 66%
    16:00 +17°C° 0 mm 3 mps 685 mmHg 63%
    17:00 +16°C° 0 mm 3 mps 686 mmHg 66%
    18:00 +14°C° 0 mm 3 mps 686 mmHg 69%
    19:00 +13°C° 0 mm 3 mps 686 mmHg 72%
    20:00 +13°C° 0 mm 2 mps 686 mmHg 78%
    21:00 +12°C° 0 mm 2 mps 687 mmHg 84%
    22:00 +10°C° 0 mm 2 mps 687 mmHg 90%
    23:00 +10°C° 0 mm 1 mps 687 mmHg 91%

    23 June, Saturday

    Time Temperature Precipitation Wind Pressure Humidity
    00:00 +10°C° 0 mm 1 mps 687 mmHg 92%
    01:00 +10°C° 0 mm 1 mps 687 mmHg 93%
    02:00 +9°C° 0 mm 1 mps 687 mmHg 93%
    03:00 +9°C° 0 mm 1 mps 687 mmHg 94%
    04:00 +8°C° 0 mm 1 mps 687 mmHg 94%
    05:00 +9°C° 0 mm 1 mps 687 mmHg 87%
    06:00 +11°C° 0 mm 1 mps 687 mmHg 80%
    07:00 +12°C° 0 mm 1 mps 687 mmHg 72%
    08:00 +14°C° 0 mm 2 mps 687 mmHg 64%
    09:00 +16°C° 0 mm 2 mps 688 mmHg 55%
    10:00 +18°C° 0 mm 2 mps 688 mmHg 46%
    11:00 +18°C° 0 mm 2 mps 688 mmHg 45%
    12:00 +19°C° 0 mm 2 mps 687 mmHg 43%
    13:00 +20°C° 0 mm 3 mps 687 mmHg 42%
    14:00 +20°C° 0 mm 3 mps 687 mmHg 44%
    15:00 +20°C° 0 mm 3 mps 687 mmHg 47%
    16:00 +19°C° 0 mm 3 mps 687 mmHg 50%
    17:00 +18°C° 0 mm 3 mps 687 mmHg 58%
    18:00 +17°C° 0 mm 3 mps 687 mmHg 65%
    19:00 +15°C° 0 mm 2 mps 687 mmHg 73%
    20:00 +14°C° 0 mm 2 mps 687 mmHg 80%
    21:00 +12°C° 0 mm 1 mps 687 mmHg 87%
    22:00 +11°C° 0 mm 1 mps 687 mmHg 94%
    23:00 +10°C° 0 mm 1 mps 687 mmHg 95%
    Show more